Home   Weather   Mons   Past weeks

Flag for Belgium Past Weather in Mons, Belgium — Yesterday and Last 2 Weeks

Now
59 °F

Refreshingly cool.


Feels Like: 56 °F
Forecast: 46 / 58 °F
Wind: 18 mph from Southeast

Location: Chievres

Current Time: Apr 30, 2017 at 11:05:34 am

Latest Report: Apr 30, 2017 at 10:25 am


Visibility: N/A

Pressure: 29.74 "Hg

Humidity: 36%

Dew Point: 32 °F

Location of MonsLocation

Past Weather in Mons — Graph

°F

Mons Temperature Yesterday

Maximum temperature yesterday: 59 °F (at 5:55 pm)
Minimum temperature yesterday: 37 °F (at 6:55 am)
Average temperature yesterday: 49 °F

High & Low Weather Summary for the Past Weeks

 TemperatureHumidityPressure
High59 °F (Apr 24, 1:55 pm)100% (Apr 27, 6:55 am)30.66 "Hg (Apr 27, 6:55 am)
Low27 °F (Apr 20, 5:25 am)28% (Apr 20, 3:25 pm)29.77 "Hg (Apr 30, 8:55 am)
Average45 °F68%30.19 "Hg
* Reported Apr 15 9:05 am — Apr 30 9:25 am, Mons, Weather by CustomWeather, © 2017

Note: Actual official high and low records may vary slightly from our data, if they occured in-between our weather recording intervals... More about our weather records

Advertising

Mons Weather History for the Previous 24 Hours

Scroll right to see more
 ConditionsComfort  
Time TempWeatherWind HumidityBarometerVisibility
9:25 am
Sun, Apr 30
55 °FPassing clouds.15 mph41%29.77 "HgN/A
8:55 am54 °FBroken clouds.16 mph44%29.77 "HgN/A
8:25 am50 °FScattered clouds.13 mph54%29.80 "HgN/A
7:55 am48 °FCool.12 mph54%29.80 "HgN/A
7:25 am45 °FQuite cool.8 mph61%29.80 "HgN/A
6:55 am41 °FQuite cool.8 mph70%29.83 "HgN/A
6:25 am39 °FChilly.8 mph75%29.83 "HgN/A
5:55 am39 °FChilly.8 mph75%29.83 "HgN/A
5:25 am41 °FQuite cool.8 mph70%29.86 "HgN/A
4:55 am41 °FQuite cool.9 mph70%29.86 "HgN/A
4:25 am41 °FQuite cool.8 mph70%29.86 "HgN/A
3:55 am39 °FChilly.7 mph75%29.89 "HgN/A
3:25 am41 °FQuite cool.8 mph70%29.89 "HgN/A
2:55 am43 °FQuite cool.9 mph66%29.89 "HgN/A
2:25 am43 °FQuite cool.9 mph66%29.89 "HgN/A
1:55 am43 °FQuite cool.7 mph66%29.92 "HgN/A
1:25 am43 °FQuite cool.7 mph66%29.92 "HgN/A
12:55 am45 °FQuite cool.6 mph61%29.92 "HgN/A
12:25 am45 °FQuite cool.6 mph66%29.95 "HgN/A
11:55 pm
Sat, Apr 29
45 °FQuite cool.6 mph66%29.95 "HgN/A
11:25 pm46 °FCool.6 mph62%29.95 "HgN/A
10:55 pm46 °FCool.7 mph62%29.95 "HgN/A
10:25 pm48 °FCool.8 mph58%29.95 "HgN/A
9:25 pm50 °FCool.9 mph54%29.95 "HgN/A
8:55 pm50 °FCool.8 mph54%29.95 "HgN/A
8:25 pm54 °FCool.10 mph47%29.95 "HgN/A
7:55 pm55 °FRefreshingly cool.13 mph44%29.95 "HgN/A
7:25 pm55 °FRefreshingly cool.12 mph44%29.95 "HgN/A
6:55 pm57 °FRefreshingly cool.9 mph44%29.98 "HgN/A
6:25 pm57 °FRefreshingly cool.7 mph39%29.98 "HgN/A
5:55 pm59 °FRefreshingly cool.12 mph36%29.98 "HgN/A
5:25 pm57 °FPartly sunny.7 mph44%30.01 "HgN/A
4:55 pm57 °FOvercast.5 mph41%30.01 "HgN/A
4:25 pm57 °FPartly sunny.7 mph41%30.01 "HgN/A
3:55 pm57 °FPartly sunny.5 mph39%30.04 "HgN/A
2:25 pm55 °FOvercast.5 mph44%30.04 "HgN/A
1:55 pm57 °FScattered clouds.2 mph39%30.04 "HgN/A
1:25 pm57 °FPassing clouds.5 mph44%30.04 "HgN/A
1:17 pm57 °FScattered clouds.1 mph41%30.04 "Hg4 mi
12:55 pm54 °FPartly sunny.3 mph44%30.07 "HgN/A
12:25 pm54 °FCool.2 mph47%30.07 "HgN/A
11:55 am55 °FScattered clouds.2 mph44%30.07 "HgN/A
11:38 am55 °FPassing clouds.3 mph47%30.07 "Hg3 mi
11:25 am54 °FScattered clouds.2 mph51%30.07 "HgN/A
Weather by CustomWeather, © 2017

See weather overviewHow to use our weather pages